Location: ?ern� Novina
(50.6762°N, 14.8696°E)
Time: 13:11:18
(UTC+00:00)

BREEZE-M DEB (TANK) - Pass Details

Date: 03 March 2021
Orbit: 308 x 15404 km, 49.5° (Epoch: 10 April)

Event Time Altitude Azimuth Distance (km) Brightness Sun altitude
Rises 19:44:05 0° 278° (W) 2,280 6.6 -28.3°
Reaches altitude 10° 19:45:26 10° 274° (W) 1,640 5.5 -28.5°
Enters shadow 19:47:19 40° 256° (WSW) 935 3.7 -28.8°
